WESTFORD NEEDLES, 3255

Orbit data source: Space-Track

WESTFORD NEEDLES, 3255 is space debris in LEO originally from a launch on Thu, 09 May 1963 UTC launched from the Air Force Western Test Range (AFWTR). Debris objects in space refer to the collection of defunct objects orbiting the Earth. Examples of debris include non-operational satellites, rocket bodies, and fragments generated from explosions, collisions, or faulty payload assembly.

Loading next visibility...
Identifier
3255, 1963-014BV
Orbit
LEO
Country
Flag of USUS
Related business
Manufacturer
Unknown
Mission
Spacecraft
Bus & Motor
Unknown
Mass
Unknown
Launch date (UTC)
1963-05-09 (63 years ago)
Launch vehicle
Unknown
Launch site
Air Force Western Test Range (AFWTR)
Object type
Payload
Rocket body
Debris
Shape & HBR
Unknown shape, 1.1 m
Radar Cross Section
Medium (>0.1 m² and <1 m²)

Expand to show TLE details & history
Last TLE update: 22 hours ago

TLE from 22 hours ago
0 WESTFORD NEEDLES
1  3255U 63014BV  26256.15615714  .00000347  00000-0  15570+0 0  9991
2  3255  87.3561 160.9428 0185944  93.9418 268.2715  8.66828129389047
Epoch: 2026-09-13T03:44Z
TLE epoch observation values (Epoch: 2026-09-13T03:44:51.976Z)
Latitude
-0.00009°
Longitude
112.57138°
Altitude
3,643.41 km
Speed
6.305 km/s
True Right ascension
10h 43m 46s
True Declination
0° 00' 00"
Sunlit
Object was in daylight at epoch
Visualization orbit readout
Latitude
Unknown
Longitude
Unknown
Altitude
Unknown
Speed
Unknown
Apparent Right ascension
Unknown
Apparent Declination
Unknown
Sunlit
N/A
Visualization observer readout
Local Sidereal Time
18:01:48
Azimuth
Unknown
Elevation
Unknown
Doppler factor
Unknown
Orbital elements
Apogee altitude
3,816.064 km
Perigee altitude
3,443.874 km
Semi-major axis
10,008.106 km
Eccentricity
0.01859
Inclination
87.3561°
RAAN
160.9428°
Arg. of periapsis
93.9418°
True anomaly
266.14369°
Mean anomaly
268.2715°
Eccentric anomaly
267.20738°
Mean motion
2.16778 °/min
Orbital period
166.07 mins
BSTAR
0.1557
Loading maneuver chart data...
Computing Atmospheric mass density...

Documentation

Showing up to 5 results
|